Dewpoint
73 74 73 72 70 69 70 71 70 69 69 65 65 69 68 69 71 69 70 72 74 74 74 75 76 76 74 75 76 75 75 74 74 72 73 73 72 72 72 72 74 73
73 74 74 73 73 72 71 70 72 71 71 70 66 67 70 70 70 70 70 71 72 74 75 73 75 76 76 74 75 74 74 74 74 71 72 73 73 72 70 72 72 74
73 73 73 73 72 71 69 70 72 71 69 69 68 68 68 70 71 73 72 71 71 70 73 74 74 76 75 75 74 74 73 75 75 71 72 73 72 72 72 69 70 72
73 74 72 72 72 72 71 70 71 72 70 69 69 65 66 65 70 72 73 73 72 71 71 73 73 73 75 75 75 74 73 74 74 74 73 73 74 72 72 71 70 70
73 73 72 73 72 73 73 71 69 70 69 68 69 70 69 70 71 70 73 73 73 72 72 72 73 73 74 75 75 74 73 72 73 75 75 74 75 74 72 71 71 70
74 74 74 73 73 73 72 71 71 69 70 67 69 69 69 69 70 71 72 73 72 70 69 70 72 72 72 74 75 75 73 70 69 74 74 75 73 71 69 70 72 72
72 73 72 72 72 72 73 73 72 71 70 68 70 70 70 70 70 72 73 72 71 72 68 71 73 73 72 73 75 75 74 73 72 72 74 74 75 74 70 71 72 72
72 72 73 73 71 71 73 73 73 72 71 71 69 70 70 69 71 70 71 72 71 71 72 69 73 74 71 71 73 74 74 72 72 73 73 74 74 74 74 73 72 73
72 73 72 72 71 71 71 71 72 72 72 71 69 68 70 70 71 71 72 72 72 72 73 72 73 73 72 72 73 74 74 72 71 72 73 73 74 74 73 74 73 74
73 72 71 71 70 70 70 69 70 71 71 71 70 67 69 71 71 72 73 74 72 72 73 74 73 73 73 72 72 73 74 74 74 72 73 73 73 73 73 73 72 73
71 70 71 71 70 69 69 69 68 69 71 70 70 68 67 70 72 72 74 74 72 72 73 74 73 74 74 72 72 72 73 73 74 74 73 73 74 74 73 73 72 71
71 70 70 70 69 68 68 68 67 67 69 70 70 69 68 68 71 71 72 74 74 73 74 75 75 75 75 73 70 71 72 73 73 74 73 73 74 74 74 74 72 72
70 70 70 69 70 68 67 67 67 65 66 69 70 69 67 66 69 72 72 73 75 74 73 75 75 75 76 75 73 73 72 73 71 72 72 73 73 73 72 72 72 72
71 70 70 72 71 72 69 67 67 66 66 68 70 70 67 66 66 70 71 72 74 74 75 75 76 75 76 77 75 72 71 72 72 71 70 72 72 73 72 69 69 69
73 71 71 72 71 72 69 68 68 68 68 68 71 70 68 67 66 68 71 72 73 75 75 74 74 75 75 75 76 74 72 70 72 71 70 71 72 71 71 71 68 66
75 74 74 73 72 73 73 71 68 69 66 67 70 70 71 71 70 68 69 71 72 74 74 73 73 74 73 69 72 75 73 69 70 72 72 70 71 71 69 69 69 67
74 75 76 75 75 74 74 74 73 70 71 73 72 72 74 75 71 68 67 70 71 72 73 72 71 70 68 66 67 70 74 73 71 72 73 73 70 72 72 69 68 68
74 76 76 75 76 76 76 75 74 74 74 74 72 72 75 73 71 70 71 68 70 71 71 71 70 68 64 65 66 66 70 75 71 70 70 72 72 70 70 70 68 65
76 75 76 75 76 76 76 76 76 75 73 72 71 73 73 74 74 71 71 70 69 71 71 71 70 66 63 63 64 65 65 71 70 70 68 69 71 72 70 70 71 69
76 76 76 76 76 77 77 76 75 75 73 72 72 73 75 74 73 73 72 74 72 71 73 71 71 66 62 62 63 63 64 67 73 69 69 68 70 70 71 71 73 73
76 76 77 77 77 77 77 77 75 75 74 72 72 72 74 75 73 73 73 73 71 70 71 70 68 63 61 60 61 61 63 65 73 70 70 71 71 71 73 72 73 73
76 76 77 77 77 77 77 76 76 76 76 74 73 72 73 74 74 73 73 73 73 71 69 70 69 61 60 60 60 60 62 71 74 73 72 71 72 72 73 75 75 75
75 75 76 77 77 76 77 76 76 76 76 75 73 72 72 73 74 72 74 73 73 73 72 71 70 65 59 58 58 59 62 73 74 73 74 73 73 73 73 74 74 75
76 76 76 76 77 76 76 75 75 76 75 75 73 71 70 71 73 73 72 73 72 73 72 72 70 68 56 57 57 58 65 73 74 74 74 74 74 74 74 75 75 76
75 75 76 76 77 76 75 76 75 76 75 75 73 72 70 71 72 72 72 72 71 71 72 71 70 66 56 56 56 56 65 75 74 74 74 74 73 74 74 74 75 75
75 76 76 76 77 76 76 76 75 75 75 74 74 72 70 69 69 71 71 71 71 70 70 71 71 72 65 55 55 55 59 75 75 74 73 74 74 74 74 75 75 75